Regional Weather Roundup
Issued by NWS

Home | Current Version | Previous Version | Text Only | Print | Product List | Glossary On
Versions: 1 2 3 4 5 6 7 8 9 10 11 12 13 14 15 16 17 18 19 20 21 22 23 24 25 26 27 28 29 30 31 32 33 34 35 36 37 38 39 40 41 42 43 44 45 46 47 48 49 50
000
ASUS45 KREV 222310
RWRNV
NEVADA REGIONAL WEATHER ROUNDUP
NATIONAL WEATHER SERVICE RENO NV
400 PM PDT MON SEP 22 2014

NOTE: "FAIR" INDICATES FEW OR NO CLOUDS BELOW 12,000 FEET WITH NO
SIGNIFICANT WEATHER AND/OR OBSTRUCTIONS TO VISIBILITY.

NVZ001-003-004-230000-
WESTERN NEVADA

CITY           SKY/WX    TMP DP  RH WIND       PRES   REMARKS
RENO           MOSUNNY   84  41  21 VRB3      30.04F
CARSON CITY    FAIR      82  36  18 SW7       30.07F
MINDEN         FAIR      82  41  23 NE6       30.08F
FALLON         MOSUNNY   85  36  17 VRB3      30.03F
LOVELOCK       SUNNY     84  48  28 S8        30.03F
HAWTHORNE      SUNNY     84  39  20 CALM      30.04F
$$

NVZ002-CAZ072-073-230000-
NORTHERN AND CENTRAL SIERRA

CITY           SKY/WX    TMP DP  RH WIND       PRES   REMARKS
S. LAKE TAHOE  MOSUNNY   75  41  29 NE8       30.19F HAZE
TRUCKEE        SMOKE     73  41  31 W15       30.18F VSB 3/4
SQUAW VLY 8000 NOT AVBL
SUSANVILLE     MOSUNNY   84  39  20 SW13G21   30.04F
BLUE CANYON    CLOUDY    71  39  31 W8        30.19F HAZE
MAMMOTH LAKES  FAIR      75  34  22 SE9       30.24F
BRIDGEPORT     FAIR      77  26  15 W8G18     30.19F
$$

NVZ030-031-036-230000-
NORTHERN NEVADA

CITY           SKY/WX    TMP DP  RH WIND       PRES   REMARKS
ELKO           SUNNY     79  43  27 SW17      30.11F
WINNEMUCCA     MOSUNNY   82  43  25 VRB3      30.06F
WENDOVER       CLOUDY    72  52  49 E5        30.10F
$$

NVZ035-037-230000-
CENTRAL NEVADA

CITY           SKY/WX    TMP DP  RH WIND       PRES   REMARKS
ELY            PTSUNNY   74  41  30 W9        30.21S
EUREKA           N/A     76  41  28 W9        30.18F
$$

NVZ013-014-230000-
SOUTH CENTRAL NEVADA

CITY           SKY/WX    TMP DP  RH WIND       PRES   REMARKS
TONOPAH        SUNNY     80  39  23 MISG      30.15F
$$

NVZ017-020-022-230000-
SOUTHERN NEVADA

CITY           SKY/WX    TMP DP  RH WIND       PRES   REMARKS
LAS VEGAS      MOSUNNY   95  41  15 E8        29.90F
N. LAS VEGAS   SUNNY     93  40  15 S8        29.93F
NELLIS AFB     SUNNY     94  45  18 CALM      29.92F
HENDERSON      SUNNY     95  44  17 NE12      29.97F
MERCURY        SUNNY     90  36  14 SW7G17    30.01F
$$


USA.gov is the U.S. government's official web portal to all federal, state and local government web resources and services.